Location: Newark
(36.1358°N, 115.1208°W)
Time: 06:31:25
(UTC+00:00)

Tiros 1 - All Passes

Search period start: 24 February 2020 00:00
Search period end: 05 March 2020 00:00
Orbit: 631 x 664 km, 48.4° (Epoch: 23 February)

Date Brightness Start Highest point End Pass type
(mag) Time Alt. Az. Time Alt. Az. Time Alt. Az.
24 Feb - 06:38:16 10° SE 06:39:25 11° SE 06:40:35 10° ESE night (unlit)
24 Feb - 08:16:19 10° SW 08:20:58 72° SE 08:25:36 10° ENE night (unlit)
24 Feb - 09:59:26 10° W 10:03:29 29° NNW 10:07:31 10° NE night (unlit)
24 Feb - 11:43:42 10° NW 11:46:49 17° N 11:49:57 10° NE visible
24 Feb - 13:26:17 10° NW 13:30:12 27° NNE 13:34:08 10° ENE visible
24 Feb - 15:08:10 10° NW 15:12:48 82° SW 15:17:25 10° SE daylight
24 Feb - 16:52:23 10° WSW 16:54:23 13° SW 16:56:25 10° SSW daylight
25 Feb - 07:01:07 10° SSW 07:05:05 28° SE 07:09:02 10° ENE night (unlit)
25 Feb - 08:42:30 10° WSW 08:47:04 53° NNW 08:51:37 10° NE night (unlit)
25 Feb - 10:26:33 10° WNW 10:30:02 20° NNW 10:33:29 10° NE visible
25 Feb - 12:10:11 10° NW 12:13:31 19° N 12:16:50 10° NE visible
25 Feb - 13:52:09 10° NW 13:56:35 44° NNE 14:01:01 10° ESE visible
25 Feb - 15:34:30 10° WNW 15:38:42 34° SW 15:42:53 10° SSE daylight
26 Feb - 07:26:17 10° SW 07:30:55 66° SE 07:35:32 10° ENE night (unlit)
26 Feb - 09:09:16 10° W 09:13:23 30° NNW 09:17:29 10° NE night (unlit)
26 Feb - 10:53:34 10° NW 10:56:43 18° N 10:59:50 10° NE visible
26 Feb - 12:36:15 10° NW 12:40:06 25° NNE 12:43:58 10° ENE visible
26 Feb - 14:18:06 10° NW 14:22:45 89° SW 14:27:22 10° SE daylight
26 Feb - 16:01:59 10° W 16:04:23 14° SW 16:06:48 10° SSW daylight
27 Feb - 06:11:12 10° S 06:15:03 25° SE 06:18:53 10° ENE night (unlit)
27 Feb - 07:52:23 10° WSW 07:56:59 57° NNW 08:01:35 10° NE night (unlit)
27 Feb - 09:36:22 10° WNW 09:39:55 21° NNW 09:43:27 10° NE night (unlit)
27 Feb - 11:20:06 10° NW 11:23:24 19° N 11:26:41 10° NE visible
27 Feb - 13:02:07 10° NW 13:06:31 42° NNE 13:10:53 10° E visible
27 Feb - 14:44:23 10° WNW 14:48:40 38° SW 14:52:56 10° SSE daylight
28 Feb - 06:36:15 10° SW 06:40:53 61° SE 06:45:28 10° ENE night (unlit)
28 Feb - 08:19:06 10° W 08:23:18 32° NNW 08:27:27 10° NE night (unlit)
28 Feb - 10:03:25 10° NW 10:06:35 18° N 10:09:44 10° NE visible
28 Feb - 11:46:12 10° NW 11:50:00 24° NNE 11:53:48 10° ENE visible
28 Feb - 13:28:03 10° NW 13:32:42 84° NE 13:37:19 10° SE visible
28 Feb - 15:11:40 10° W 15:14:23 16° SW 15:17:06 10° SSW daylight
29 Feb - 05:21:19 10° S 05:25:02 23° SE 05:28:43 10° E night (unlit)
29 Feb - 07:02:16 10° WSW 07:06:55 62° NNW 07:11:33 10° NE night (unlit)
29 Feb - 08:46:11 10° WNW 08:49:48 22° NNW 08:53:24 10° NE night (unlit)
29 Feb - 10:30:01 10° NW 10:33:17 18° N 10:36:32 10° NE visible
29 Feb - 12:12:05 10° NW 12:16:26 39° NNE 12:20:46 10° E visible
29 Feb - 13:54:18 10° WNW 13:58:38 41° SW 14:02:59 10° SSE daylight
01 Mar - 05:46:14 10° SW 05:50:50 55° SE 05:55:25 10° ENE night (unlit)
01 Mar - 07:28:56 10° W 07:33:12 33° NNW 07:37:26 10° NE night (unlit)
01 Mar - 09:13:15 10° NW 09:16:28 18° N 09:19:39 10° NE night (unlit)
01 Mar - 10:56:09 10° NW 10:59:54 24° NNE 11:03:39 10° ENE visible
01 Mar - 12:38:00 10° NW 12:42:38 78° NE 12:47:15 10° ESE visible
01 Mar - 14:21:23 10° W 14:24:22 17° SW 14:27:22 10° S daylight
02 Mar - 04:31:27 10° S 04:35:00 21° SE 04:38:32 10° E night (unlit)
02 Mar - 06:12:09 10° WSW 06:16:51 67° NNW 06:21:31 10° NE night (unlit)
02 Mar - 07:56:00 10° WNW 07:59:41 22° NNW 08:03:22 10° NE night (unlit)
02 Mar - 09:39:55 10° NW 09:43:09 18° N 09:46:23 10° NE night (unlit)
02 Mar - 11:22:02 10° NW 11:26:21 37° NNE 11:30:38 10° E visible
02 Mar - 13:04:12 10° WNW 13:08:37 45° SW 13:13:00 10° SSE visible
03 Mar - 04:56:13 10° SSW 05:00:47 50° SE 05:05:20 10° ENE night (unlit)
03 Mar - 06:38:46 10° W 06:43:07 35° NNW 06:47:25 10° NE night (unlit)
03 Mar - 08:23:05 10° NW 08:26:20 18° N 08:29:33 10° NE night (unlit)
03 Mar - 10:06:05 10° NW 10:09:48 23° NNE 10:13:29 10° ENE visible
03 Mar - 11:47:57 10° NW 11:52:35 72° NE 11:57:11 10° ESE visible
03 Mar - 13:31:08 10° W 13:34:22 19° SW 13:37:35 10° S visible
04 Mar - 03:41:36 10° S 03:44:58 19° SE 03:48:20 10° E visible
04 Mar - 05:22:03 10° WSW 05:26:47 73° NW 05:31:29 10° NE night (unlit)
04 Mar - 07:05:48 10° WNW 07:09:34 23° NNW 07:13:19 10° NE night (unlit)
04 Mar - 08:49:48 10° NW 08:53:02 18° N 08:56:15 10° NE night (unlit)
04 Mar - 10:32:00 10° NW 10:36:16 35° NNE 10:40:30 10° E visible
04 Mar - 12:14:06 10° WNW 12:18:35 50° SW 12:23:02 10° SSE visible
